{"data":{"norad_id":60249,"intl_designator":"2024-130A","name":"GAOFEN-11 05","alt_names":[],"object_type":"PAYLOAD","status":"ACTIVE","operator":null,"country":"PRC","launch_date":"2024-07-19","launch_site_code":"TAISC","launch_vehicle":null,"mission":null,"orbit_class":"UNKNOWN","rcs_meters":null,"size_class":null,"mass_kg":null,"dimensions":null,"purposes":[],"wikipedia_slug":null,"has_3d_model":false,"image_url":null,"decayed_at":null,"tle_current":{"epoch":"2026-05-25T04:39:29.284416Z","epoch_age_seconds":65123,"freshness":"FRESH","line1":"1 60249U 24130A   26145.19408894  .00005126  00000+0  21851-3 0  9995","line2":"2 60249  97.3999 223.8215 0004277 137.4120 222.7449 15.23373678 81969","mean_motion":15.23373678,"eccentricity":0.0004277,"inclination_deg":97.3999,"raan_deg":223.8215,"arg_perigee_deg":137.412,"mean_anomaly_deg":222.7449,"bstar":0.00021851,"rev_number":8196,"period_min":94.527036983502,"perigee_km":492.73338130148,"apogee_km":498.61323864063,"semimajor_km":6873.8103099711,"source":"CELESTRAK","updated_at":"2026-05-25T13:38:01.932117Z"}}}